Flag for Germany Weather past 2 weeks in Neu-Ulm, Bavaria, Germany

Now
57 °F

Cool.


Feels Like: 57 °F
Forecast: 44 / 54 °F
Wind: 3 mph from West

Location: Laupheim Airport

Current Time: Sep 21, 2014 at 6:57:39 AM

Latest Report: Sep 21, 2014 at 6:20 AM


Visibility: 3 mi

Pressure: 30.01 "Hg

Humidity: 94%

Dew point: 55 °F

Location of Neu-UlmLocation

Historic Weather in Neu-Ulm — Graph

°F

Neu-Ulm temperature yesterday

Maximum temperature yesterday: 70 °F (at 3:20 PM)
Minimum temperature yesterday: 59 °F (at 2:20 AM)
Average temperature yesterday: 62 °F

Past Weeks' High & Low Weather Summary

 TemperatureHumidityPressure
High77 °F (Sep 8, 2:20 PM)100% (Sep 6, 5:20 AM)30.15 "Hg (Sep 6, 5:20 AM)
Low46 °F (Sep 11, 6:20 AM)50% (Sep 7, 3:20 PM)29.92 "Hg (Sep 6, 3:20 PM)
Average60 °F87%30.01 "Hg
* Reported Sep 6 5:20 AM — Sep 21 5:20 AM, Neu-Ulm, Weather by CustomWeather, © 2014

Note: Actual official high and low records may vary slightly from our data, if they occured in-between our weather recording intervals... More about our weather records

Advertising

Neu-Ulm weather history for previous 24 hours

 ConditionsComfort  
Time TempWeatherWind HumidityBarometerVisibility
5:20 AM
Sep 21
57 °FCool.3 mph94%30.04 "Hg2 mi
4:20 AM57 °FCool.6 mph94%30.04 "Hg3 mi
3:20 AM55 °FCool.5 mph94%30.04 "Hg3 mi
2:20 AM55 °FCool.2 mph94%30.04 "Hg3 mi
1:20 AM57 °FCool.6 mph88%30.04 "Hg3 mi
12:20 AM59 °FCool.6 mph88%30.04 "Hg3 mi
11:20 PM
Sep 20
59 °FCool.6 mph88%30.04 "Hg3 mi
10:20 PM61 °FCool.7 mph88%30.04 "Hg3 mi
9:20 PM61 °FCool.3 mph94%30.04 "Hg3 mi
8:20 PM63 °FMild.2 mph88%30.04 "Hg3 mi
7:20 PM66 °FMild.8 mph78%30.01 "Hg4 mi
3:20 PM70 °FMild.8 mph73%30.01 "Hg4 mi
2:20 PM68 °FMild.10 mph78%30.04 "Hg4 mi
1:20 PM66 °FMild.9 mph78%30.04 "Hg4 mi
12:20 PM66 °FMild.10 mph83%30.04 "Hg4 mi
11:20 AM64 °FMild.8 mph83%30.04 "Hg4 mi
10:20 AM63 °FMild.7 mph88%30.04 "Hg3 mi
9:20 AM61 °FCool.3 mph94%30.04 "Hg3 mi
8:20 AM59 °FCool.3 mph100%30.04 "Hg3 mi
7:20 AM59 °FCool.3 mph94%30.01 "Hg2 mi
6:20 AM59 °FCool.2 mph100%30.01 "Hg2 mi
Weather by CustomWeather, © 2014

See weather overviewHow to use our weather pages